User: anonymous   Login
Location: Austin
(30.3000°N, 97.7500°W)
Time: 22:58:23
(UTC-05:00)
Language:

Gbstr 26 Del rocket - Orbit

View from above orbital plane
View from above orbital plane
View from above satellite
View from above satellite

Ground track
Ground track

The orbit is defined by the following mean orbital elements,

1 25876U          26156.70907516 +.00000000 +00000-0 +14823-3 0 00007
2 25876  51.7659 309.6462 0501036 248.0872 106.6086 14.11994346    08
Epoch (UTC): 05 June 2026 17:01:04
Eccentricity: 0.0501036
inclination: 51.7659°
perigee height: 490 km
apogee height: 1215 km
right ascension of ascending node: 309.6462°
argument of perigee: 248.0872°
revolutions per day: 14.11994346
mean anomaly at epoch: 106.6086°

The dashed part of the orbit path shows where the satellite is in the earth's shadow,  

DLR